Погода в Куриловке

Украина / Днепропетровская область     48°34′31″N   34°36′14″E
темп.,
°C
ветер,
м/с
пор.,
м/с
влажн.,
%
обл.,
%
осадки,
мм/ч
давл.,
гПа
погр.,
м
24 июня, чт
чт2400:00+23св3677100 0.0 101494
03:00+22ссв468295 0.0 101485
06:00+21ссв478174 0.0 1014149
09:00+26в61259100 0.1 1014456
12:00+28в4654100 0.0 1014656
15:00+31в6849100 0.0 10141382
18:00+27в4861100 0.4 1015245
21:00+24всв336286 0.4 101527
25 июня, пт
пт2500:00+22всв227690 0.0 101522
03:00+21в22735 0.0 101413
06:00+21ссв33745 0.0 101451
09:00+27св576561 0.0 1013402
12:00+29св575656 0.0 1013751
15:00+31св575191 0.0 10131156
18:00+30ссв4757100 0.0 1012269
21:00+26всв347430 0.0 101152
26 июня, сб
сб2600:00+23всв337986 0.0 101237
03:00+22св348495 0.0 101154
06:00+22ссв368821 0.0 1011133
09:00+27св466840 0.0 1011488
12:00+31всв555044 0.0 10101102
15:00+33св454140 0.0 10101706
18:00+31всв464893 0.0 1010505
21:00+26в33605 0.0 100933
27 июня, вс
вс2700:00+24всв33765 0.0 100944
03:00+22с018624 0.0 101018
06:00+23св34845 0.0 101098
09:00+28св45616 0.0 1009471
12:00+32всв44485 0.0 10091338
15:00+33св44465 0.0 10091903
18:00+33вюв224684 0.0 10071942
21:00+20сз71491100 5.9 1011416
28 июня, пн
пн2800:00+20всв2693100 2.9 1011247
03:00+19сз359654 3.8 1010202
06:00+18сз379360 0.6 1010222
09:00+23сз467998 0.6 1011563
12:00+26сз5564100 0.0 10111290
15:00+25сз6769100 0.1 10111265
18:00+22зсз797898 0.1 1012862
21:00+19сз5887100 0.1 1012557